| time (UTC) | temp F | wind direction | speed MPH | gust MPH | rain 1hr in | rain 24hr in | rain mn in | humidity % | barometer mb |
| 20260902103633 | 56 | 134 | 0.0 | 0.0 | 0.00 | 0.00 | 0.00 | 75 | 1011.1 |
| 20260902103140 | 56 | 134 | 0.0 | 0.0 | 0.00 | 0.00 | 0.00 | 75 | 1011.1 |
| 20260902102640 | 56 | 134 | 0.0 | 0.0 | 0.00 | 0.00 | 0.00 | 75 | 1011.2 |
| 20260902101520 | 56 | 134 | 0.0 | 0.0 | 0.00 | 0.00 | 0.00 | 74 | 1011.2 |
| 20260902101011 | 56 | 134 | 0.0 | 0.0 | 0.00 | 0.00 | 0.00 | 74 | 1011.2 |
| 20260902100511 | 56 | 134 | 0.0 | 0.0 | 0.00 | 0.00 | 0.00 | 74 | 1011.1 |
| 20260902095957 | 56 | 134 | 0.0 | 0.0 | 0.00 | 0.00 | 0.00 | 74 | 1011.1 |
| 20260902095456 | 56 | 134 | 0.0 | 0.0 | 0.00 | 0.00 | 0.00 | 75 | 1011.0 |
| 20260902094959 | 56 | 134 | 0.0 | 0.0 | 0.00 | 0.00 | 0.00 | 75 | 1011.0 |
| 20260902093818 | 55 | 134 | 0.0 | 0.0 | 0.00 | 0.00 | 0.00 | 75 | 1010.9 |
| 20260902092631 | 55 | 134 | 0.0 | 0.0 | 0.00 | 0.00 | 0.00 | 75 | 1010.8 |
| 20260902092124 | 55 | 134 | 0.0 | 0.0 | 0.00 | 0.00 | 0.00 | 75 | 1010.6 |
| 20260902091631 | 55 | 134 | 0.0 | 0.0 | 0.00 | 0.00 | 0.00 | 75 | 1010.6 |
| 20260902091116 | 55 | 134 | 0.0 | 0.0 | 0.00 | 0.00 | 0.00 | 75 | 1010.5 |
| 20260902090626 | 55 | 134 | 0.0 | 0.0 | 0.00 | 0.00 | 0.00 | 75 | 1010.5 |
| 20260902085447 | 55 | 134 | 0.0 | 0.0 | 0.00 | 0.00 | 0.00 | 75 | 1010.6 |
| 20260902084938 | 55 | 134 | 0.0 | 0.0 | 0.00 | 0.00 | 0.00 | 75 | 1010.5 |
| 20260902083812 | 55 | 134 | 0.0 | 0.0 | 0.00 | 0.00 | 0.00 | 73 | 1010.4 |
| 20260902082023 | 56 | 134 | 0.0 | 0.0 | 0.00 | 0.00 | 0.00 | 72 | 1010.5 |
| 20260902081526 | 56 | 134 | 0.0 | 0.0 | 0.00 | 0.00 | 0.00 | 72 | 1010.5 |
| 20260902081011 | 56 | 134 | 0.0 | 0.0 | 0.00 | 0.00 | 0.00 | 71 | 1010.5 |
| 20260902080506 | 56 | 134 | 0.0 | 0.0 | 0.00 | 0.00 | 0.00 | 71 | 1010.4 |
| 20260902080011 | 57 | 134 | 0.0 | 0.0 | 0.00 | 0.00 | 0.00 | 71 | 1010.4 |
| 20260902075505 | 57 | 134 | 0.0 | 0.0 | 0.00 | 0.00 | 0.00 | 70 | 1010.4 |
| 20260902074954 | 57 | 134 | 0.0 | 0.0 | 0.00 | 0.00 | 0.00 | 70 | 1010.4 |
| 20260902073217 | 58 | 106 | 0.0 | 2.0 | 0.00 | 0.00 | 0.00 | 70 | 1010.3 |
| 20260902072715 | 58 | 104 | 0.0 | 2.0 | 0.00 | 0.00 | 0.00 | 70 | 1010.4 |
| 20260902071548 | 59 | 201 | 0.0 | 1.0 | 0.00 | 0.00 | 0.00 | 70 | 1010.3 |
| 20260902071043 | 59 | 149 | 0.0 | 0.0 | 0.00 | 0.00 | 0.00 | 70 | 1010.4 |
| 20260902070526 | 59 | 189 | 0.0 | 3.0 | 0.00 | 0.00 | 0.00 | 70 | 1010.4 |
| 20260902070023 | 59 | 130 | 0.0 | 3.0 | 0.00 | 0.00 | 0.00 | 70 | 1010.4 |
| 20260902065504 | 59 | 152 | 0.0 | 3.0 | 0.00 | 0.00 | 0.00 | 70 | 1010.4 |
| 20260902064946 | 59 | 155 | 1.0 | 5.0 | 0.00 | 0.00 | 0.00 | 71 | 1010.4 |
| 20260902063816 | 60 | 153 | 1.0 | 5.0 | 0.00 | 0.00 | 0.00 | 71 | 1010.6 |
| 20260902063324 | 60 | 165 | 2.0 | 5.0 | 0.00 | 0.00 | 0.00 | 70 | 1010.6 |
| 20260902062806 | 60 | 118 | 2.0 | 4.0 | 0.00 | 0.00 | 0.00 | 70 | 1010.7 |
| 20260902062305 | 60 | 180 | 1.0 | 4.0 | 0.00 | 0.00 | 0.00 | 69 | 1010.8 |
| 20260902061805 | 60 | 137 | 1.0 | 4.0 | 0.00 | 0.00 | 0.00 | 69 | 1010.9 |
| 20260902061310 | 60 | 222 | 1.0 | 4.0 | 0.00 | 0.00 | 0.00 | 70 | 1010.9 |
| 20260902055552 | 59 | 134 | 1.0 | 5.0 | 0.00 | 0.00 | 0.00 | 71 | 1011.1 |
| 20260902055054 | 59 | 186 | 1.0 | 6.0 | 0.00 | 0.00 | 0.00 | 70 | 1011.1 |
| 20260902054544 | 59 | 181 | 1.0 | 6.0 | 0.00 | 0.00 | 0.00 | 70 | 1011.2 |
| 20260902054036 | 60 | 206 | 1.0 | 6.0 | 0.00 | 0.00 | 0.00 | 70 | 1011.2 |
| 20260902053540 | 60 | 186 | 1.0 | 6.0 | 0.00 | 0.00 | 0.00 | 69 | 1011.3 |
| 20260902053045 | 60 | 140 | 1.0 | 4.0 | 0.00 | 0.00 | 0.00 | 69 | 1011.4 |
| 20260902052534 | 60 | 120 | 1.0 | 4.0 | 0.00 | 0.00 | 0.00 | 69 | 1011.4 |
| 20260902052030 | 60 | 166 | 1.0 | 4.0 | 0.00 | 0.00 | 0.00 | 71 | 1011.5 |
| 20260902051515 | 60 | 201 | 2.0 | 4.0 | 0.00 | 0.00 | 0.00 | 70 | 1011.5 |
| 20260902051015 | 60 | 179 | 1.0 | 4.0 | 0.00 | 0.00 | 0.00 | 68 | 1011.6 |
| 20260902050514 | 60 | 135 | 1.0 | 6.0 | 0.00 | 0.00 | 0.00 | 68 | 1011.6 |
| 20260902050002 | 60 | 142 | 1.0 | 6.0 | 0.00 | 0.00 | 0.00 | 69 | 1011.6 |
| 20260902044832 | 60 | 179 | 2.0 | 6.0 | 0.00 | 0.00 | 0.00 | 68 | 1011.8 |
| 20260902044330 | 60 | 138 | 2.0 | 4.0 | 0.00 | 0.00 | 0.00 | 69 | 1011.8 |
| 20260902043810 | 60 | 133 | 2.0 | 4.0 | 0.00 | 0.00 | 0.00 | 67 | 1011.8 |
| 20260902043251 | 60 | 144 | 1.0 | 4.0 | 0.00 | 0.00 | 0.00 | 67 | 1011.7 |
| 20260902042123 | 60 | 137 | 1.0 | 4.0 | 0.00 | 0.00 | 0.00 | 68 | 1011.8 |
| 20260902041611 | 60 | 181 | 1.0 | 4.0 | 0.00 | 0.00 | 0.00 | 67 | 1011.8 |
| 20260902041115 | 60 | 125 | 1.0 | 4.0 | 0.00 | 0.00 | 0.00 | 68 | 1011.8 |
| 20260902040604 | 60 | 211 | 1.0 | 5.0 | 0.00 | 0.00 | 0.00 | 67 | 1011.8 |
| 20260902035450 | 60 | 171 | 1.0 | 5.0 | 0.00 | 0.00 | 0.00 | 67 | 1012.0 |
| 20260902034959 | 60 | 300 | 1.0 | 4.0 | 0.00 | 0.00 | 0.00 | 67 | 1012.0 |
| 20260902034450 | 60 | 216 | 2.0 | 4.0 | 0.00 | 0.00 | 0.00 | 67 | 1012.0 |
| 20260902033957 | 60 | 182 | 1.0 | 4.0 | 0.00 | 0.00 | 0.00 | 65 | 1012.0 |
| 20260902032204 | 61 | 142 | 0.0 | 4.0 | 0.00 | 0.00 | 0.00 | 66 | 1012.3 |
| 20260902031701 | 61 | 145 | 0.0 | 4.0 | 0.00 | 0.00 | 0.00 | 67 | 1012.4 |
| 20260902031202 | 61 | 104 | 0.0 | 4.0 | 0.00 | 0.00 | 0.00 | 66 | 1012.5 |
| 20260902030650 | 61 | 170 | 0.0 | 3.0 | 0.00 | 0.00 | 0.00 | 68 | 1012.6 |
| 20260902030153 | 60 | 253 | 0.0 | 3.0 | 0.00 | 0.00 | 0.00 | 67 | 1012.6 |
| 20260902025635 | 60 | 217 | 0.0 | 3.0 | 0.00 | 0.00 | 0.00 | 68 | 1012.8 |
| 20260902024514 | 60 | 78 | 0.0 | 3.0 | 0.00 | 0.00 | 0.00 | 68 | 1013.2 |
| 20260902024015 | 60 | 48 | 0.0 | 3.0 | 0.00 | 0.00 | 0.00 | 68 | 1013.3 |
| 20260902023505 | 60 | 41 | 0.0 | 4.0 | 0.00 | 0.00 | 0.00 | 68 | 1013.4 |
| 20260902022340 | 60 | 122 | 0.0 | 4.0 | 0.00 | 0.00 | 0.00 | 67 | 1013.6 |
| 20260902021842 | 60 | 140 | 0.0 | 4.0 | 0.00 | 0.00 | 0.00 | 69 | 1013.6 |
| 20260902021349 | 59 | 51 | 0.0 | 4.0 | 0.00 | 0.00 | 0.00 | 68 | 1013.7 |
| 20260902020850 | 59 | 61 | 0.0 | 4.0 | 0.00 | 0.00 | 0.00 | 68 | 1013.8 |
| 20260902020342 | 60 | 94 | 0.0 | 4.0 | 0.00 | 0.00 | 0.00 | 67 | 1013.9 |
| 20260902015840 | 60 | 329 | 0.0 | 4.0 | 0.00 | 0.00 | 0.00 | 68 | 1013.9 |
| 20260902015322 | 60 | 269 | 0.0 | 4.0 | 0.00 | 0.00 | 0.00 | 67 | 1013.8 |
| 20260902014825 | 60 | 52 | 0.0 | 4.0 | 0.00 | 0.00 | 0.00 | 67 | 1013.9 |
| 20260902014317 | 61 | 16 | 0.0 | 4.0 | 0.00 | 0.00 | 0.00 | 67 | 1014.0 |
| 20260902013823 | 61 | 297 | 0.0 | 3.0 | 0.00 | 0.00 | 0.00 | 66 | 1014.0 |
| 20260902013306 | 61 | 348 | 0.0 | 3.0 | 0.00 | 0.00 | 0.00 | 65 | 1014.0 |
| 20260902012759 | 62 | 325 | 0.0 | 3.0 | 0.00 | 0.00 | 0.00 | 65 | 1014.1 |
| 20260902012257 | 61 | 316 | 0.0 | 3.0 | 0.00 | 0.00 | 0.00 | 67 | 1014.1 |
| 20260902011741 | 60 | 302 | 0.0 | 3.0 | 0.00 | 0.00 | 0.00 | 67 | 1014.3 |
| 20260902011247 | 60 | 26 | 0.0 | 3.0 | 0.00 | 0.00 | 0.00 | 68 | 1014.3 |
| 20260902010129 | 59 | 224 | 0.0 | 3.0 | 0.00 | 0.00 | 0.00 | 71 | 1014.4 |
| 20260902005639 | 58 | 238 | 0.0 | 3.0 | 0.00 | 0.00 | 0.00 | 71 | 1014.5 |
| 20260902005145 | 59 | 261 | 0.0 | 4.0 | 0.00 | 0.00 | 0.00 | 71 | 1014.5 |
| 20260902004650 | 58 | 293 | 0.0 | 4.0 | 0.00 | 0.00 | 0.00 | 71 | 1014.6 |
| 20260902004138 | 59 | 309 | 1.0 | 4.0 | 0.00 | 0.00 | 0.00 | 71 | 1014.6 |
| 20260902003624 | 59 | 102 | 1.0 | 4.0 | 0.00 | 0.00 | 0.00 | 71 | 1014.6 |
| 20260902003114 | 59 | 255 | 1.0 | 5.0 | 0.00 | 0.00 | 0.00 | 71 | 1014.6 |
| 20260902002611 | 59 | 275 | 1.0 | 5.0 | 0.00 | 0.00 | 0.00 | 72 | 1014.5 |
| 20260902002054 | 58 | 298 | 1.0 | 5.0 | 0.00 | 0.00 | 0.00 | 72 | 1014.7 |
| 20260902001536 | 58 | 317 | 1.0 | 5.0 | 0.00 | 0.00 | 0.00 | 73 | 1014.7 |
| 20260902001033 | 58 | 295 | 1.0 | 5.0 | 0.00 | 0.00 | 0.00 | 74 | 1014.7 |
| 20260902000524 | 58 | 253 | 1.0 | 5.0 | 0.00 | 0.00 | 0.00 | 73 | 1014.8 |
| 20260902000029 | 58 | 28 | 1.0 | 4.0 | 0.00 | 0.00 | 0.00 | 74 | 1014.8 |
| 20260901235516 | 57 | 54 | 1.0 | 5.0 | 0.00 | 0.00 | 0.00 | 73 | 1014.9 |
| 20260901235014 | 57 | 306 | 1.0 | 5.0 | 0.00 | 0.00 | 0.00 | 74 | 1014.9 |
| 20260901234508 | 57 | 246 | 1.0 | 5.0 | 0.00 | 0.00 | 0.00 | 74 | 1014.8 |
| 20260901234007 | 57 | 31 | 1.0 | 5.0 | 0.00 | 0.00 | 0.00 | 75 | 1014.9 |
| 20260901233457 | 56 | 306 | 0.0 | 5.0 | 0.00 | 0.00 | 0.00 | 76 | 1014.9 |
| 20260901233001 | 56 | 273 | 1.0 | 5.0 | 0.00 | 0.00 | 0.00 | 76 | 1014.9 |
| 20260901232510 | 56 | 320 | 1.0 | 4.0 | 0.00 | 0.00 | 0.00 | 77 | 1015.0 |
| 20260901231343 | 56 | 309 | 1.0 | 8.0 | 0.00 | 0.00 | 0.00 | 75 | 1014.9 |
| 20260901230841 | 56 | 294 | 1.0 | 8.0 | 0.00 | 0.00 | 0.00 | 76 | 1014.9 |
| 20260901230327 | 56 | 272 | 1.0 | 8.0 | 0.00 | 0.00 | 0.00 | 76 | 1015.0 |
| 20260901225822 | 56 | 296 | 1.0 | 4.0 | 0.00 | 0.00 | 0.00 | 76 | 1014.9 |
| 20260901225327 | 56 | 293 | 1.0 | 4.0 | 0.00 | 0.00 | 0.00 | 77 | 1014.9 |
| 20260901224829 | 56 | 272 | 1.0 | 4.0 | 0.00 | 0.00 | 0.00 | 77 | 1014.9 |
| 20260901224326 | 56 | 287 | 1.0 | 4.0 | 0.00 | 0.00 | 0.00 | 77 | 1014.9 |
| 20260901223829 | 55 | 305 | 1.0 | 6.0 | 0.00 | 0.00 | 0.00 | 78 | 1014.9 |
| 20260901222710 | 55 | 307 | 1.0 | 7.0 | 0.00 | 0.00 | 0.00 | 78 | 1014.9 |
| 20260901222209 | 55 | 317 | 1.0 | 7.0 | 0.00 | 0.00 | 0.00 | 78 | 1014.8 |
| 20260901221718 | 55 | 208 | 1.0 | 7.0 | 0.00 | 0.00 | 0.00 | 79 | 1014.7 |
| 20260901221215 | 55 | 326 | 1.0 | 7.0 | 0.00 | 0.00 | 0.00 | 79 | 1014.6 |
| 20260901220717 | 55 | 267 | 1.0 | 5.0 | 0.00 | 0.00 | 0.00 | 79 | 1014.6 |
| 20260901220209 | 55 | 269 | 1.0 | 5.0 | 0.00 | 0.00 | 0.00 | 79 | 1014.5 |
| 20260901215710 | 55 | 137 | 0.0 | 5.0 | 0.00 | 0.00 | 0.00 | 80 | 1014.4 |
| 20260901215201 | 55 | 5 | 0.0 | 5.0 | 0.00 | 0.00 | 0.00 | 80 | 1014.3 |
| 20260901214642 | 55 | 277 | 0.0 | 5.0 | 0.00 | 0.00 | 0.00 | 81 | 1014.3 |
| 20260901214125 | 55 | 62 | 0.0 | 5.0 | 0.00 | 0.00 | 0.00 | 81 | 1014.2 |
| 20260901213012 | 55 | 300 | 1.0 | 5.0 | 0.00 | 0.00 | 0.00 | 81 | 1014.2 |
| 20260901211852 | 55 | 309 | 1.0 | 7.0 | 0.00 | 0.00 | 0.00 | 82 | 1014.0 |
| 20260901211401 | 55 | 321 | 1.0 | 7.0 | 0.00 | 0.00 | 0.00 | 82 | 1014.0 |
| 20260901210903 | 55 | 284 | 1.0 | 7.0 | 0.00 | 0.00 | 0.00 | 82 | 1014.0 |
| 20260901210351 | 55 | 61 | 1.0 | 7.0 | 0.00 | 0.00 | 0.00 | 82 | 1014.0 |
| 20260901205841 | 55 | 278 | 1.0 | 7.0 | 0.00 | 0.00 | 0.00 | 83 | 1013.9 |
| 20260901205333 | 55 | 300 | 1.0 | 5.0 | 0.00 | 0.00 | 0.00 | 83 | 1014.0 |
| 20260901204843 | 55 | 202 | 0.0 | 4.0 | 0.00 | 0.00 | 0.00 | 84 | 1013.9 |
| 20260901204350 | 55 | 137 | 1.0 | 3.0 | 0.00 | 0.00 | 0.00 | 84 | 1013.8 |
| 20260901203856 | 55 | 281 | 1.0 | 4.0 | 0.00 | 0.00 | 0.00 | 84 | 1013.8 |
| 20260901203352 | 55 | 296 | 0.0 | 4.0 | 0.00 | 0.00 | 0.00 | 84 | 1013.7 |
| 20260901202848 | 55 | 336 | 0.0 | 5.0 | 0.00 | 0.00 | 0.00 | 84 | 1013.6 |
| 20260901202337 | 55 | 133 | 1.0 | 5.0 | 0.00 | 0.00 | 0.00 | 84 | 1013.5 |
| 20260901201827 | 55 | 277 | 1.0 | 5.0 | 0.00 | 0.00 | 0.00 | 85 | 1013.5 |
| 20260901201319 | 55 | 268 | 0.0 | 5.0 | 0.00 | 0.00 | 0.00 | 85 | 1013.4 |
| 20260901200803 | 55 | 256 | 0.0 | 3.0 | 0.00 | 0.00 | 0.00 | 85 | 1013.3 |
| 20260901200250 | 55 | 290 | 0.0 | 4.0 | 0.00 | 0.00 | 0.00 | 84 | 1013.2 |
| 20260901195740 | 55 | 227 | 0.0 | 4.0 | 0.00 | 0.00 | 0.00 | 84 | 1013.2 |
| 20260901194619 | 55 | 300 | 1.0 | 4.0 | 0.00 | 0.00 | 0.00 | 84 | 1013.2 |
| 20260901194127 | 55 | 285 | 0.0 | 4.0 | 0.00 | 0.00 | 0.00 | 85 | 1013.1 |
| 20260901193616 | 55 | 283 | 0.0 | 4.0 | 0.00 | 0.00 | 0.00 | 84 | 1013.1 |
| 20260901193116 | 55 | 297 | 0.0 | 4.0 | 0.00 | 0.00 | 0.00 | 84 | 1013.1 |
| 20260901192557 | 56 | 294 | 0.0 | 4.0 | 0.00 | 0.00 | 0.00 | 85 | 1013.1 |
| 20260901191426 | 56 | 304 | 0.0 | 5.0 | 0.00 | 0.00 | 0.00 | 84 | 1012.9 |
| 20260901190925 | 56 | 259 | 1.0 | 5.0 | 0.00 | 0.00 | 0.00 | 84 | 1012.7 |
| 20260901190420 | 56 | 299 | 1.0 | 5.0 | 0.00 | 0.00 | 0.00 | 84 | 1012.8 |
| 20260901185321 | 56 | 324 | 1.0 | 6.0 | 0.00 | 0.00 | 0.00 | 84 | 1012.6 |
| 20260901184813 | 56 | 314 | 1.0 | 6.0 | 0.00 | 0.00 | 0.00 | 84 | 1012.5 |
| 20260901184307 | 56 | 314 | 1.0 | 6.0 | 0.00 | 0.00 | 0.00 | 84 | 1012.5 |
| 20260901183804 | 56 | 250 | 1.0 | 6.0 | 0.00 | 0.00 | 0.00 | 84 | 1012.4 |
| 20260901183305 | 56 | 262 | 1.0 | 5.0 | 0.00 | 0.00 | 0.00 | 85 | 1012.4 |
| 20260901182752 | 56 | 274 | 1.0 | 5.0 | 0.00 | 0.00 | 0.00 | 84 | 1012.4 |
| 20260901182233 | 56 | 44 | 0.0 | 5.0 | 0.00 | 0.00 | 0.00 | 84 | 1012.3 |
| 20260901181741 | 57 | 316 | 0.0 | 5.0 | 0.00 | 0.00 | 0.00 | 85 | 1012.2 |
| 20260901181236 | 57 | 40 | 0.0 | 5.0 | 0.00 | 0.00 | 0.00 | 85 | 1012.1 |
| 20260901180123 | 58 | 75 | 0.0 | 5.0 | 0.00 | 0.00 | 0.00 | 84 | 1012.0 |
| 20260901175608 | 58 | 283 | 1.0 | 7.0 | 0.00 | 0.00 | 0.00 | 83 | 1011.8 |
| 20260901174441 | 59 | 98 | 2.0 | 7.0 | 0.00 | 0.00 | 0.00 | 80 | 1011.8 |
| 20260901173329 | 61 | 67 | 1.0 | 5.0 | 0.00 | 0.00 | 0.00 | 78 | 1011.6 |
| 20260901172830 | 61 | 324 | 1.0 | 5.0 | 0.00 | 0.00 | 0.00 | 78 | 1011.3 |
| 20260901172319 | 61 | 321 | 0.0 | 5.0 | 0.00 | 0.00 | 0.00 | 78 | 1011.2 |
| 20260901171815 | 60 | 289 | 0.0 | 5.0 | 0.00 | 0.00 | 0.00 | 78 | 1011.2 |
| 20260901171307 | 60 | 285 | 0.0 | 5.0 | 0.00 | 0.00 | 0.00 | 78 | 1011.2 |
| 20260901170138 | 60 | 321 | 0.0 | 5.0 | 0.00 | 0.00 | 0.00 | 78 | 1011.2 |
| 20260901165626 | 61 | 347 | 0.0 | 5.0 | 0.00 | 0.00 | 0.00 | 78 | 1011.2 |
| 20260901165114 | 61 | 328 | 1.0 | 4.0 | 0.00 | 0.00 | 0.00 | 78 | 1011.3 |
| 20260901164605 | 61 | 297 | 0.0 | 4.0 | 0.00 | 0.00 | 0.00 | 77 | 1011.5 |
| 20260901164111 | 61 | 297 | 0.0 | 4.0 | 0.00 | 0.00 | 0.00 | 77 | 1011.5 |
| 20260901162947 | 61 | 336 | 0.0 | 7.0 | 0.00 | 0.00 | 0.00 | 77 | 1011.5 |
| 20260901162435 | 61 | 335 | 0.0 | 7.0 | 0.00 | 0.00 | 0.00 | 77 | 1011.6 |
| 20260901161929 | 61 | 0 | 0.0 | 7.0 | 0.00 | 0.00 | 0.00 | 77 | 1011.6 |
| 20260901161437 | 61 | 261 | 0.0 | 7.0 | 0.00 | 0.00 | 0.00 | 77 | 1011.6 |
| 20260901160926 | 61 | 350 | 0.0 | 4.0 | 0.00 | 0.00 | 0.00 | 77 | 1011.6 |
| 20260901155756 | 61 | 314 | 1.0 | 4.0 | 0.00 | 0.00 | 0.00 | 77 | 1011.7 |
| 20260901155306 | 61 | 340 | 0.0 | 3.0 | 0.00 | 0.00 | 0.00 | 77 | 1011.6 |
| 20260901154814 | 61 | 340 | 0.0 | 3.0 | 0.00 | 0.00 | 0.00 | 77 | 1011.6 |
| 20260901154306 | 61 | 323 | 0.0 | 3.0 | 0.00 | 0.00 | 0.00 | 76 | 1011.6 |
| 20260901153815 | 61 | 313 | 1.0 | 5.0 | 0.00 | 0.00 | 0.00 | 76 | 1011.6 |
| 20260901153256 | 61 | 311 | 1.0 | 5.0 | 0.00 | 0.00 | 0.00 | 76 | 1011.6 |
| 20260901152802 | 61 | 307 | 0.0 | 5.0 | 0.00 | 0.00 | 0.00 | 76 | 1011.5 |
| 20260901152250 | 61 | 4 | 0.0 | 5.0 | 0.00 | 0.00 | 0.00 | 76 | 1011.6 |
| 20260901151735 | 61 | 16 | 0.0 | 6.0 | 0.00 | 0.00 | 0.00 | 76 | 1011.6 |
| 20260901151228 | 61 | 321 | 0.0 | 6.0 | 0.00 | 0.00 | 0.00 | 76 | 1011.6 |
| 20260901150721 | 61 | 302 | 0.0 | 7.0 | 0.00 | 0.00 | 0.00 | 76 | 1011.5 |
| 20260901150211 | 61 | 295 | 0.0 | 7.0 | 0.00 | 0.00 | 0.00 | 76 | 1011.5 |
| 20260901145032 | 61 | 266 | 0.0 | 7.0 | 0.00 | 0.00 | 0.00 | 76 | 1011.6 |
| 20260901144514 | 61 | 102 | 1.0 | 5.0 | 0.00 | 0.00 | 0.00 | 76 | 1011.5 |
| 20260901144002 | 61 | 314 | 0.0 | 5.0 | 0.00 | 0.00 | 0.00 | 77 | 1011.6 |
| 20260901142842 | 61 | 294 | 1.0 | 5.0 | 0.00 | 0.00 | 0.00 | 77 | 1011.6 |
| 20260901142344 | 61 | 286 | 1.0 | 8.0 | 0.00 | 0.00 | 0.00 | 77 | 1011.6 |
| 20260901141833 | 61 | 286 | 2.0 | 8.0 | 0.00 | 0.00 | 0.00 | 76 | 1011.6 |
| 20260901141320 | 62 | 296 | 2.0 | 8.0 | 0.00 | 0.00 | 0.00 | 75 | 1011.6 |
| 20260901140820 | 62 | 275 | 2.0 | 8.0 | 0.00 | 0.00 | 0.00 | 75 | 1011.6 |
| 20260901140314 | 62 | 320 | 1.0 | 8.0 | 0.00 | 0.00 | 0.00 | 75 | 1011.6 |
| 20260901135810 | 62 | 296 | 2.0 | 8.0 | 0.00 | 0.00 | 0.00 | 74 | 1011.7 |
| 20260901135316 | 62 | 295 | 2.0 | 8.0 | 0.00 | 0.00 | 0.00 | 74 | 1011.7 |
| 20260901134801 | 62 | 228 | 1.0 | 6.0 | 0.00 | 0.00 | 0.00 | 74 | 1011.7 |
| 20260901134248 | 63 | 9 | 1.0 | 5.0 | 0.00 | 0.00 | 0.00 | 72 | 1011.7 |
| 20260901133734 | 63 | 9 | 1.0 | 5.0 | 0.00 | 0.00 | 0.00 | 72 | 1011.7 |
| 20260901133231 | 63 | 283 | 1.0 | 8.0 | 0.00 | 0.00 | 0.00 | 72 | 1011.7 |
| 20260901132113 | 63 | 250 | 1.0 | 8.0 | 0.00 | 0.00 | 0.00 | 72 | 1011.7 |
| 20260901131557 | 63 | 264 | 1.0 | 8.0 | 0.00 | 0.00 | 0.00 | 71 | 1011.7 |
| 20260901131053 | 63 | 333 | 2.0 | 8.0 | 0.00 | 0.00 | 0.00 | 71 | 1011.7 |
| 20260901125928 | 64 | 344 | 2.0 | 10.0 | 0.00 | 0.00 | 0.00 | 70 | 1011.9 |
| 20260901125425 | 64 | 15 | 2.0 | 10.0 | 0.00 | 0.00 | 0.00 | 70 | 1011.9 |
| 20260901124250 | 64 | 329 | 3.0 | 10.0 | 0.00 | 0.00 | 0.00 | 70 | 1011.8 |
| 20260901123151 | 64 | 340 | 3.0 | 15.0 | 0.00 | 0.00 | 0.00 | 69 | 1011.7 |
| 20260901122701 | 64 | 307 | 4.0 | 15.0 | 0.00 | 0.00 | 0.00 | 69 | 1011.6 |
| 20260901122157 | 64 | 13 | 4.0 | 15.0 | 0.00 | 0.00 | 0.00 | 69 | 1011.6 |
| 20260901121659 | 64 | 288 | 4.0 | 15.0 | 0.00 | 0.00 | 0.00 | 69 | 1011.6 |
| 20260901121151 | 64 | 304 | 4.0 | 13.0 | 0.00 | 0.00 | 0.00 | 70 | 1011.6 |
| 20260901120655 | 64 | 333 | 4.0 | 13.0 | 0.00 | 0.00 | 0.00 | 70 | 1011.6 |
| 20260901120138 | 64 | 319 | 5.0 | 13.0 | 0.00 | 0.00 | 0.00 | 69 | 1011.6 |
| 20260901115637 | 65 | 11 | 5.0 | 13.0 | 0.00 | 0.00 | 0.00 | 69 | 1011.4 |
| 20260901115118 | 65 | 5 | 4.0 | 13.0 | 0.00 | 0.00 | 0.00 | 67 | 1011.4 |
| 20260901114619 | 65 | 297 | 4.0 | 12.0 | 0.00 | 0.00 | 0.00 | 66 | 1011.4 |
| 20260901114124 | 65 | 350 | 3.0 | 9.0 | 0.00 | 0.00 | 0.00 | 66 | 1011.5 |
| 20260901113607 | 65 | 293 | 3.0 | 9.0 | 0.00 | 0.00 | 0.00 | 66 | 1011.5 |
| 20260901112458 | 65 | 267 | 3.0 | 9.0 | 0.00 | 0.00 | 0.00 | 66 | 1011.5 |
| 20260901111957 | 65 | 18 | 3.0 | 10.0 | 0.00 | 0.00 | 0.00 | 66 | 1011.6 |
| 20260901111450 | 65 | 0 | 2.0 | 10.0 | 0.00 | 0.00 | 0.00 | 66 | 1011.6 |
| 20260901110321 | 66 | 44 | 3.0 | 10.0 | 0.00 | 0.00 | 0.00 | 65 | 1011.5 |
| 20260901105807 | 66 | 356 | 2.0 | 9.0 | 0.00 | 0.00 | 0.00 | 65 | 1011.3 |
| 20260901105253 | 65 | 62 | 2.0 | 13.0 | 0.00 | 0.00 | 0.00 | 66 | 1011.2 |
| 20260901104739 | 65 | 284 | 3.0 | 13.0 | 0.00 | 0.00 | 0.00 | 66 | 1011.1 |
| 20260901104232 | 66 | 276 | 4.0 | 13.0 | 0.00 | 0.00 | 0.00 | 66 | 1011.3 |